Preview of NWS' New Version of Forecast
This preview is not operational and should not be used for support decisions.

Regional Weather Roundup (RWR)

Issued by National Weather Service (NWS)

                            
000
ASUS46 KPQR 261110
RWROR 

OREGON REGIONAL WEATHER ROUNDUP
NATIONAL WEATHER SERVICE PORTLAND OR
400 AM PDT TUE MAR 26 2019

NOTE: "FAIR" INDICATES FEW OR NO CLOUDS BELOW 12,000 FEET WITH
NO SIGNIFICANT WEATHER AND/OR OBSTRUCTIONS TO VISIBILITY.

ORZ001>013-261200-
NORTHWEST OREGON

  
CITY           SKY/WX    TMP DP  RH WIND       PRES   REMARKS
ASTORIA        CLOUDY    43  42  97 SE5       30.04S                  
TILLAMOOK      DRIZZLE   41  41 100 CALM      30.08R                  
NEWPORT        CLEAR     41  39  93 SE6       30.08F                  
PORTLAND       CLOUDY    47  41  80 CALM      30.09S                  
VANCOUVER WA   CLOUDY    46  41  82 CALM      30.09R                  
SCAPPOOSE      CLEAR     43  40  89 SE5       30.08S                  
HILLSBORO      PTCLDY    39  37  92 NE5       30.08R                  
AURORA         CLEAR     41  39  93 CALM      30.09S                  
MCMINNVILLE    CLEAR     38  37  97 N3        30.08R                  
SALEM          CLEAR     40  37  89 SE6       30.07S                  
CORVALLIS      CLEAR     36  35  96 CALM      30.09S                  
EUGENE         MOCLDY    39  37  92 SW3       30.08F                  
$$

ORZ021-028-261200-
SOUTHWEST OREGON

  
CITY           SKY/WX    TMP DP  RH WIND       PRES   REMARKS
NORTH BEND     PTCLDY    40  39  97 SE8       30.08F                  
BROOKINGS      CLOUDY    45  42  89 VRB3      30.06F                  
ROSEBURG       PTCLDY    37  35  92 CALM      30.07F                  
SEXTON SUMMIT  FOG       32  32 100 SE7       29.99S VSB 1/4          
GRANTS PASS    LGT RAIN  39  39 100 CALM      30.08F                  
MEDFORD        PTCLDY    39  38  96 CALM      30.06S                  
$$

ORZ014>016-041-261200-
COLUMBIA GORGE

  
CITY           SKY/WX    TMP DP  RH WIND       PRES   REMARKS
TROUTDALE      CLOUDY    46  42  86 CALM      30.09S                  
HOOD RIVER     DRIZZLE   37  36  93 MISG      30.07S                  
THE DALLES     CLEAR     42  36  79 SW6       30.07R                  
$$

ORZ029>031-041-044-049-050-061>064-502-503-505>511-261200-
EASTERN OREGON

  
CITY           SKY/WX    TMP DP  RH WIND       PRES   REMARKS
MADRAS         PTCLDY    34  30  86 E5        30.05S                  
REDMOND        PTCLDY    30  26  85 CALM      30.02R                  
BEND           PTCLDY    36  28  75 S10       30.01S WCI  28          
PRINEVILLE     MOCLDY    34  28  80 SW5       30.02S                  
KLAMATH FALLS  CLOUDY    30  29  96 CALM      29.99F                  
LAKEVIEW       LGT SNOW  32  31  96 E5        30.01F FOG              
HERMISTON      CLOUDY    46  39  76 SW6       30.04R                  
PENDLETON      CLOUDY    43  38  82 E7        30.02S                  
JOHN DAY       CLOUDY    40  32  73 W8        30.01S                  
MEACHAM        CLOUDY    36  32  85 CALM      30.00F                  
LA GRANDE      LGT RAIN  41  36  82 W13       30.02R                  
BAKER CITY     LGT RAIN  46  37  71 S14       29.97S                  
BURNS          LGT RAIN  39  36  89 SE6       30.00S                  
ROME             N/A     47  33  58 CALM      29.96F                  
ONTARIO        CLOUDY    52  39  61 W12       30.00S                  
$$